EHI
0 0 0 0 0 0 0 0 0 0 0 0 0 0 0 0 0 0 0 1 3 5 4 3 3 3 3 3 3 1 0 0 0 0 0 0 0 0 0 0 0 0 0 0 0 0 0 0 0
0 0 0 0 0 0 0 0 0 0 0 0 0 0 0 0 0 0 0 1 3 5 3 2 3 4 3 3 3 2 1 0 0 0 0 0 0 0 0 0 0 0 0 0 0 0 0 0 0
0 0 0 0 0 0 0 0 0 1 0 0 0 0 0 0 0 0 0 1 3 4 2 2 4 5 5 4 4 3 1 0 0 0 0 0 0 0 0 0 0 0 0 0 0 0 0 0 0
0 0 0 0 0 0 0 0 0 0 0 0 0 0 0 0 0 0 0 0 2 4 3 4 7 8 7 6 5 4 2 1 1 1 1 1 0 0 0 0 0 0 0 0 0 0 0 0 0
0 0 0 0 0 0 0 0 0 0 0 0 0 0 0 0 0 0 0 0 3 6 6 6 9 10 9 7 6 5 3 2 2 2 2 1 0 0 0 0 0 0 0 0 0 0 0 0 0
0 0 0 0 0 0 0 0 0 0 0 0 0 0 0 0 1 1 1 1 4 7 7 6 8 9 7 5 5 4 3 2 2 2 2 1 0 0 0 0 0 0 0 0 0 0 0 0 0
0 0 0 0 0 0 0 0 0 0 0 0 0 0 0 1 2 2 2 3 4 7 6 4 4 4 3 2 2 1 1 1 1 1 1 0 0 0 0 0 0 0 0 1 1 0 0 0 0
0 0 0 0 0 0 0 0 0 0 0 0 0 0 0 1 1 2 3 4 5 6 5 3 1 0 0 0 0 0 0 0 0 0 0 0 0 0 0 0 0 0 0 1 1 0 0 0 0
0 0 0 0 0 0 0 0 0 0 0 0 0 0 0 0 0 1 4 5 5 6 6 4 1 0 0 0 0 0 0 0 0 0 0 0 0 0 0 0 0 0 0 1 1 0 0 0 0
0 0 0 0 0 0 0 0 0 0 0 0 0 0 0 0 0 1 3 4 6 6 5 3 1 0 0 0 0 0 0 0 0 0 0 0 0 0 0 0 0 0 0 0 0 0 0 0 0
0 0 0 0 0 0 0 0 0 0 0 0 0 0 0 0 0 0 1 3 4 3 2 1 1 0 0 0 0 0 1 1 0 0 0 0 0 0 0 0 0 0 0 0 0 0 0 0 0
0 0 0 0 0 0 0 0 0 0 0 0 0 0 0 0 0 0 0 1 1 1 1 1 0 0 0 1 1 1 2 2 1 0 0 0 0 0 0 0 0 0 0 0 0 0 0 0 0
0 0 0 0 0 0 0 0 0 0 0 0 0 0 0 0 0 0 0 0 0 0 0 0 0 0 0 1 1 2 3 2 1 1 1 0 0 0 0 0 0 0 0 0 0 0 0 0 0
0 0 0 0 0 0 0 0 0 0 0 0 0 0 0 0 0 0 0 0 0 0 0 0 0 0 0 0 1 1 3 3 2 3 2 0 0 0 0 0 0 0 0 0 0 0 0 0 0
0 0 0 0 0 0 0 0 0 0 0 0 0 0 0 0 0 0 0 0 0 0 0 0 0 0 0 0 0 0 1 2 3 4 3 1 0 0 0 0 0 0 0 0 0 0 0 0 0
0 0 0 0 0 0 0 0 0 0 0 0 0 0 0 0 0 0 0 0 0 0 0 0 0 0 0 0 0 0 0 1 3 4 3 1 0 0 0 0 0 0 0 0 0 0 0 0 0
0 0 0 0 0 0 0 0 0 0 0 0 0 0 0 0 0 0 0 0 0 0 0 0 0 0 0 0 0 0 0 0 1 2 2 1 0 0 0 0 0 0 0 0 0 0 0 0 0
0 0 0 0 0 0 0 0 0 0 0 0 0 0 0 0 0 0 0 0 0 0 0 0 0 0 0 0 0 0 0 0 0 1 1 1 0 0 0 0 0 0 0 0 0 0 0 0 0
0 0 0 0 0 0 0 0 0 0 0 0 0 0 0 0 0 0 0 0 0 0 0 0 0 0 0 0 0 0 0 0 0 0 0 0 0 0 0 0 0 0 0 0 0 0 0 0 0
0 0 0 0 0 0 0 0 0 0 0 0 0 0 0 0 0 0 0 0 0 0 0 0 0 0 0 0 0 0 0 0 0 0 0 0 0 1 0 0 0 0 0 0 0 0 0 0 0
0 0 0 0 0 0 0 0 0 0 0 0 0 0 0 0 0 0 0 0 0 0 0 0 0 0 0 0 0 0 0 0 0 0 0 0 0 0 0 0 0 0 0 0 0 0 0 0 0
0 0 0 0 0 0 0 0 0 0 0 0 0 0 0 0 0 0 0 0 0 0 0 0 0 0 0 0 0 0 0 0 0 0 0 0 0 0 0 0 0 0 0 0 0 0 0 0 0
0 0 0 0 0 0 0 0 0 0 0 0 0 0 0 0 0 0 0 0 0 0 0 0 0 0 0 0 0 0 0 0 0 0 0 0 0 0 0 0 0 0 0 0 0 0 0 0 0
0 0 0 0 0 0 0 0 0 0 0 0 0 0 0 0 0 0 0 0 0 0 0 0 0 0 0 0 0 0 0 0 0 0 0 0 0 0 0 0 0 0 0 0 0 0 0 0 0
0 0 0 0 0 0 0 0 0 0 0 0 0 0 0 0 0 0 0 0 0 0 0 0 0 0 0 0 0 0 0 0 0 0 0 0 0 0 0 0 0 0 0 0 0 0 0 0 0
0 0 0 0 0 0 0 0 0 0 0 0 0 0 0 0 0 0 0 0 0 0 0 0 0 0 0 0 0 0 0 0 0 0 0 0 0 0 0 0 0 0 0 0 0 0 0 0 0
0 0 0 0 0 0 0 0 0 0 0 0 0 0 0 0 0 0 0 0 0 0 0 0 0 0 0 0 0 0 0 0 0 0 0 0 0 0 0 0 0 0 0 0 0 0 0 0 0
0 0 0 0 0 0 0 0 0 0 0 0 0 0 0 0 0 0 0 0 0 0 0 0 0 0 0 0 0 0 0 0 0 0 0 0 0 0 0 0 0 0 0 0 0 0 0 0 0
0 0 0 0 0 0 0 0 0 0 0 0 0 0 0 0 0 0 0 0 0 0 0 0 0 0 0 0 0 0 0 0 0 0 0 0 0 0 0 0 0 0 0 0 0 0 0 0 0
0 0 0 0 0 0 0 0 0 0 0 0 0 0 0 0 0 0 0 0 0 0 0 0 0 0 0 0 0 0 0 0 0 0 0 0 0 0 0 0 0 0 0 0 0 0 0 0 0
Wind_Speed
12 10 6 2 2 4 7 4 1 2 4 5 6 6 6 6 5 7 3 5 5 5 5 5 8 8 8 8 9 9 9 10 10 10 10 11 11 11 12 12 13 12 12 12 12 12 12 12 12
10 6 3 3 3 5 5 3 2 3 6 5 5 4 5 7 7 7 3 4 4 5 5 5 7 9 9 8 9 9 9 10 10 10 10 10 11 11 11 12 12 12 12 12 12 12 12 11 11
9 5 3 3 4 5 2 2 6 8 7 4 4 5 5 5 6 5 4 3 4 6 6 6 8 9 9 9 9 9 9 9 10 10 10 10 10 11 11 11 12 12 12 12 12 12 12 11 10
4 3 3 4 7 4 2 3 8 7 4 3 4 6 5 6 4 5 5 3 5 7 6 6 9 9 9 10 10 9 9 9 9 10 10 10 10 10 10 10 11 11 12 12 12 12 11 11 10
3 3 4 5 7 3 1 3 6 5 5 3 3 5 6 5 8 7 4 4 6 6 6 6 8 10 10 10 10 10 9 9 9 9 10 10 10 10 10 10 10 10 11 11 11 11 11 11 10
3 3 4 7 6 4 2 2 3 3 4 4 2 4 5 5 6 5 4 4 6 6 6 5 8 9 10 10 10 10 10 9 9 10 10 10 10 10 10 10 10 10 10 10 10 10 10 10 9
3 3 5 6 4 3 2 3 3 3 4 3 2 4 6 5 5 4 4 4 5 6 5 5 5 6 8 9 10 11 10 9 9 9 9 9 9 10 10 10 10 10 9 9 9 9 9 9 9
2 3 4 5 5 3 2 3 2 2 3 3 2 3 5 6 5 4 4 4 5 5 5 4 4 4 4 5 8 9 9 9 9 9 8 8 8 8 9 9 9 9 9 9 9 8 8 8 8
2 2 4 4 3 0 4 3 3 4 4 4 3 5 6 11 7 5 3 3 3 4 4 4 4 4 4 3 5 6 6 7 7 6 7 6 4 4 5 7 9 9 9 9 8 8 7 8 7
2 3 3 2 4 2 3 3 4 3 3 2 3 6 9 9 7 5 4 3 3 3 3 3 3 3 3 2 3 2 3 3 3 3 3 2 3 3 4 6 7 8 8 8 8 8 7 5 2
2 3 1 2 4 3 2 2 2 3 3 4 6 8 8 7 6 5 4 3 3 3 3 3 3 2 2 2 2 1 1 1 2 3 3 2 2 2 2 2 3 3 4 3 4 4 2 2 2
2 2 2 1 3 2 1 2 2 3 1 2 4 9 9 8 7 6 4 4 3 3 3 3 2 2 2 2 1 1 1 1 1 2 3 3 2 2 2 1 1 2 1 2 2 1 2 3 3
5 3 1 1 1 1 1 2 2 4 2 1 5 8 8 8 6 5 4 4 4 3 3 2 2 2 2 1 1 2 2 1 1 2 2 3 2 2 1 1 1 1 1 1 2 2 2 2 2
1 1 2 3 3 3 3 5 4 6 4 4 5 7 7 7 7 5 5 4 4 4 3 2 2 2 1 1 1 1 1 1 1 1 2 2 2 2 1 1 1 1 1 1 1 1 1 1 1
1 2 4 5 6 4 3 7 9 6 6 6 6 6 7 7 6 6 6 5 5 5 4 3 2 1 1 1 1 1 1 1 1 1 2 2 2 2 2 1 1 1 1 1 1 1 1 1 2
3 4 5 5 6 4 3 8 5 7 8 7 6 6 6 7 7 6 6 5 4 5 5 4 3 2 1 1 0 0 0 1 1 0 1 2 2 2 1 1 1 1 1 1 1 1 1 1 1
5 6 6 4 5 5 6 8 3 5 7 8 7 7 6 6 7 6 6 6 5 5 5 4 3 3 2 1 1 0 0 0 0 0 1 1 1 1 1 1 1 1 1 1 1 1 1 1 1
4 5 6 5 4 4 7 9 6 5 7 8 7 6 7 7 7 6 6 6 5 5 5 5 4 3 2 1 1 0 0 0 0 0 1 1 1 1 1 1 1 0 0 0 0 1 1 0 0
5 6 8 5 2 4 9 12 10 7 7 8 7 7 7 7 6 6 7 6 5 5 5 5 5 4 3 2 1 1 1 1 1 1 1 1 1 1 1 1 1 0 0 0 0 0 0 0 1
7 9 9 4 1 4 7 12 11 9 10 9 9 8 8 7 6 7 6 6 6 6 6 6 5 5 4 3 2 1 1 1 1 1 1 2 2 2 2 2 1 1 1 1 1 1 0 0 1
7 7 7 6 4 4 6 10 9 7 7 6 7 6 6 6 6 7 7 7 6 6 6 6 5 5 4 3 2 1 0 0 1 1 1 2 2 2 2 2 2 2 2 2 2 2 2 1 1
7 3 5 5 4 4 3 7 6 5 6 7 6 5 4 4 5 6 6 7 7 6 5 5 5 5 4 4 4 4 3 2 2 2 2 2 2 2 2 3 3 3 2 2 2 2 1 2 2
3 3 5 5 5 6 5 6 8 4 6 6 5 4 4 3 4 4 5 6 5 5 5 5 5 4 4 4 5 4 3 2 2 2 2 2 3 3 2 3 3 3 2 3 2 2 2 2 2
2 3 4 4 3 8 9 8 7 4 5 4 3 3 3 3 3 3 3 4 4 4 4 4 5 4 4 4 4 4 4 3 3 3 3 3 2 2 3 3 3 3 3 3 3 2 3 3 3
1 1 1 2 4 7 4 6 8 3 1 4 4 3 3 3 3 3 3 4 4 4 4 4 4 4 4 4 4 4 4 4 4 4 4 3 2 2 3 3 3 3 3 3 3 3 3 3 4
4 4 4 4 5 4 3 7 6 1 3 3 3 3 2 2 3 3 3 3 3 4 4 4 4 4 4 4 4 4 4 3 3 3 3 3 3 3 3 3 3 3 3 3 3 3 3 3 4
3 4 3 4 5 6 6 5 4 2 3 3 2 3 1 1 2 2 2 2 2 2 3 3 4 4 4 4 4 4 4 4 3 3 3 3 3 3 3 3 3 3 4 4 4 3 4 3 3
3 2 1 3 4 6 7 7 5 3 2 1 1 1 1 1 1 1 2 2 2 2 2 2 3 4 4 4 4 4 4 4 3 3 4 3 3 3 3 4 4 4 4 4 4 3 4 4 4
4 3 4 4 4 4 6 6 1 3 3 2 2 2 1 1 1 1 1 1 1 1 2 2 2 3 3 4 3 3 3 3 3 3 3 3 3 3 4 4 4 4 4 4 4 4 4 5 5
4 5 6 4 6 5 5 8 3 1 1 1 1 1 2 1 1 1 1 1 1 2 2 2 3 3 3 3 3 3 3 3 3 3 3 3 3 3 4 4 4 4 4 4 5 5 5 5 6
Wind_Direction
296 268 247 248 234 232 241 243 230 86 63 43 34 42 51 44 38 107 122 65 68 74 80 67 52 57 65 67 64 66 65 64 62 62 62 63 62 60 61 63 60 59 60 61 64 66 68 66 66
290 271 250 236 235 233 234 212 189 79 86 75 49 40 67 74 73 98 92 53 67 76 77 72 59 62 63 69 69 69 67 66 64 62 61 63 63 62 64 63 60 59 59 60 62 63 64 65 66
276 261 242 223 234 242 252 96 100 86 83 93 90 38 45 76 90 96 92 75 76 76 71 70 66 67 64 66 70 69 68 67 66 63 60 63 63 62 64 63 60 58 59 61 61 62 60 60 63
261 232 246 246 244 248 292 79 99 109 90 68 109 98 74 51 68 87 97 87 82 76 71 70 66 68 67 65 69 70 70 68 67 65 61 62 62 62 62 63 62 59 58 61 62 60 59 56 58
249 242 224 234 243 253 339 80 115 128 132 136 126 116 105 74 78 92 92 83 80 77 72 77 69 67 66 66 66 70 71 70 67 65 64 64 64 64 65 65 62 61 60 60 60 59 59 57 56
247 242 229 228 224 216 199 127 128 130 130 134 136 120 111 108 98 99 90 84 83 84 81 83 72 69 64 62 62 64 67 68 67 64 63 64 66 63 64 65 61 61 63 62 62 60 58 55 54
261 250 246 252 234 223 179 132 149 153 140 137 137 123 119 115 102 103 95 89 88 89 83 81 75 71 66 62 62 57 60 64 65 64 62 62 64 62 60 59 60 59 62 64 63 61 59 56 51
293 283 253 255 243 240 125 108 64 68 102 78 77 139 142 138 115 110 97 87 86 88 85 80 70 67 68 68 63 60 56 60 61 62 58 57 58 59 58 53 52 54 57 62 63 63 59 56 48
286 259 251 260 255 190 115 113 79 42 77 73 57 49 96 122 123 120 110 93 90 87 82 84 78 66 58 70 71 67 60 60 60 59 56 58 60 61 59 52 49 48 49 54 56 58 59 55 43
225 233 247 329 360 66 117 123 133 137 135 141 117 93 108 122 135 145 139 131 116 100 89 81 82 81 69 69 75 66 62 63 57 53 54 59 62 62 62 56 47 43 43 45 47 49 56 49 34
209 232 250 6 11 40 118 128 140 184 195 193 172 148 137 140 149 157 154 144 131 114 91 76 74 81 77 63 75 62 59 58 66 57 37 42 63 61 60 62 46 37 39 35 32 39 35 32 35
218 275 300 348 7 358 183 181 191 215 199 73 134 145 149 158 168 172 168 154 136 126 107 83 76 74 65 58 76 75 62 52 69 72 55 43 46 57 56 66 50 40 27 16 25 25 21 23 32
218 234 246 85 87 317 289 241 238 228 205 103 117 138 157 168 174 174 165 152 140 139 127 106 82 79 65 55 57 76 60 52 58 81 70 61 53 53 55 61 62 37 23 21 17 22 19 23 26
213 203 224 220 208 227 240 244 236 233 189 170 155 161 170 177 176 174 171 166 161 152 144 133 114 93 75 64 54 85 88 70 41 83 83 73 68 57 48 60 61 39 22 14 25 18 21 20 28
231 240 243 225 209 196 216 247 227 217 183 190 184 178 177 181 181 181 179 174 169 162 152 150 150 128 120 91 58 78 100 110 75 74 94 84 71 69 61 51 63 28 13 13 12 34 43 34 30
232 239 241 213 191 161 187 251 213 187 186 198 194 192 188 188 188 185 176 171 165 159 157 160 167 152 143 130 145 112 94 105 126 103 109 103 85 74 83 63 30 17 29 24 359 35 51 41 43
218 239 241 218 188 173 206 249 218 177 192 204 204 200 196 195 193 187 178 172 169 166 161 162 160 163 160 154 180 184 131 104 162 116 104 114 108 89 96 104 24 7 56 36 345 23 55 55 33
234 246 262 243 198 209 230 247 239 206 210 215 211 207 202 202 199 185 177 172 169 168 163 164 164 166 156 154 156 125 126 138 167 152 153 148 148 131 120 137 100 13 72 65 9 21 30 72 18
281 281 279 281 239 232 245 257 254 225 222 226 222 214 211 208 193 179 173 169 167 168 169 172 171 170 159 166 175 177 197 194 194 209 210 187 176 164 155 153 154 156 197 195 209 106 97 78 46
262 273 278 288 300 265 269 267 260 236 227 223 223 220 212 202 188 181 171 167 172 177 179 179 180 177 175 182 191 196 186 217 215 210 231 214 193 182 187 175 177 181 189 211 204 119 152 210 80
254 254 272 284 303 264 282 279 242 232 218 215 216 216 206 195 188 182 176 178 179 185 187 190 185 182 182 178 169 166 132 182 223 208 228 232 213 202 197 198 186 188 186 205 219 184 168 183 194
262 281 278 278 282 266 221 283 250 220 223 218 211 205 202 195 188 183 179 180 185 188 186 187 184 185 184 178 178 179 192 214 229 213 215 231 221 217 213 202 196 196 197 202 223 210 186 174 193
278 318 288 272 264 275 242 258 271 201 225 219 201 191 191 186 183 182 180 180 181 179 180 185 185 188 188 187 186 194 208 221 218 204 207 227 223 213 216 209 198 198 202 203 210 218 198 192 195
301 298 278 258 248 257 230 224 268 213 210 179 160 172 178 174 168 166 165 159 166 170 173 178 186 191 190 193 195 203 208 207 209 219 211 220 218 213 213 222 211 205 202 203 209 209 212 210 206
235 243 291 254 227 243 206 219 247 231 141 149 153 154 156 157 154 156 155 157 164 170 174 179 188 200 197 197 204 210 214 209 210 215 213 216 213 216 213 222 220 216 211 205 207 212 216 222 214
228 218 214 238 255 278 260 236 248 143 113 105 124 130 133 155 160 163 166 165 172 180 182 185 197 209 201 204 214 216 214 212 217 222 217 222 218 216 212 217 221 224 219 215 207 219 221 226 224
237 236 255 275 283 280 253 245 260 156 116 103 99 95 101 160 177 172 162 158 165 178 190 191 198 214 212 211 215 217 215 216 220 223 221 227 222 217 206 214 218 223 223 216 205 215 220 220 230
270 297 217 220 253 260 263 243 237 200 185 167 179 188 214 196 174 170 159 158 169 185 198 203 207 215 218 215 217 226 218 217 215 215 222 229 230 220 205 216 221 221 225 223 211 213 218 218 228
191 224 232 237 244 251 271 262 299 186 173 191 225 236 228 218 194 189 194 182 183 194 208 222 229 229 226 218 219 223 221 221 214 215 219 230 240 225 214 215 216 220 222 221 215 219 220 223 227
213 214 201 220 245 238 263 269 332 41 74 102 346 335 332 298 254 214 205 191 217 223 221 224 234 235 231 218 218 222 222 217 219 224 222 227 235 237 225 219 220 223 225 221 221 221 223 225 228